Regional Weather Roundup
Issued by NWS

Home | Current Version | Previous Version | Graphics & Text | Print | Product List | Glossary On
Versions: 1 2 3 4 5 6 7 8 9 10 11 12 13 14 15 16 17 18 19 20 21 22 23 24 25 26 27 28 29 30 31 32 33 34 35 36 37 38 39 40 41 42 43 44 45 46 47 48 49 50
000
ASUS43 KOAX 251202
RWRNE

WEATHER ROUNDUP FOR NEBRASKA
NATIONAL WEATHER SERVICE OMAHA NE
700 AM CDT THU AUG 25 2016

NOTES: SATELLITE DATA IS BEING USED TO AUGMENT CLOUD COVER ABOVE
       12000 FEET.
       "FAIR" INDICATES FEW OR NO CLOUDS BELOW 12,000 FEET WITH NO
       SIGNIFICANT WEATHER AND/OR OBSTRUCTIONS TO VISIBILITY.

  * THESE STATIONS DO NOT REPORT WEATHER SUCH AS RAIN...SNOW OR FOG.

NEZ001>004-019>022-054>056-251300-
NEBRASKA PANHANDLE

CITY           SKY/WX    TMP DP  RH WIND       PRES   REMARKS
SCOTTSBLUFF    CLOUDY    52  48  86 CALM      30.25R
6HR MIN TEMP:  49; 6HR MAX TEMP:  56;

ALLIANCE       CLOUDY    52  49  89 NE12      30.25R
6HR MIN TEMP:  44; 6HR MAX TEMP:  54;

CHADRON        LGT RAIN  54  47  77 CALM      30.28R
6HR MIN TEMP:  51; 6HR MAX TEMP:  58; 6HR PCP: TRACE;

SIDNEY         CLEAR     43  38  82 NW5       30.24S
6HR MIN TEMP:  43; 6HR MAX TEMP:  51;

$$

NEZ057>060-069>072-079>082-251300-
SOUTHWEST NEBRASKA

CITY           SKY/WX    TMP DP  RH WIND       PRES   REMARKS
NORTH PLATTE   CLOUDY    53  50  89 N5        30.19R
6HR MIN TEMP:  51; 6HR MAX TEMP:  57;

IMPERIAL       PTCLDY    52  45  77 NW7       30.21R
6HR MIN TEMP:  51; 6HR MAX TEMP:  59;

LEXINGTON      CLOUDY    56  53  91 NW5       30.16S
MCCOOK         CLOUDY    55  51  86 NW6       30.17R
6HR MIN TEMP:  54; 6HR MAX TEMP:  59;

OGALLALA       CLOUDY    47  44  90 W3        30.21R
$$

NEZ005>010-023>029-035>040-094-251300-
NORTH CENTRAL NEBRASKA

CITY           SKY/WX    TMP DP  RH WIND       PRES   REMARKS
VALENTINE      CLOUDY    47  43  86 W3        30.23R
6HR MIN TEMP:  47; 6HR MAX TEMP:  60;

AINSWORTH      MOCLDY    52  49  89 NW5       30.22R
BROKEN BOW     CLOUDY    56  52  86 N12       30.17R
6HR MIN TEMP:  53; 6HR MAX TEMP:  57;

O`NEILL        CLOUDY    58  51  79 N8        30.17R
ORD            MOCLDY    57  53  86 NW6       30.15R
6HR MIN TEMP:  56; 6HR MAX TEMP:  60;

THEDFORD       CLOUDY    54  48  81 NW3       30.23R
$$

NEZ041-046>049-061>064-073>077-083>087-251300-
SOUTH CENTRAL NEBRASKA

CITY           SKY/WX    TMP DP  RH WIND       PRES   REMARKS
GRAND ISLAND   CLOUDY    59  55  87 S6        30.14R
6HR MIN TEMP:  57; 6HR MAX TEMP:  63;

AURORA         CLOUDY    59  58  98 NW3       30.13R
HASTINGS       CLOUDY    59  55  87 CALM      30.15R
6HR MIN TEMP:  57; 6HR MAX TEMP:  62;

HEBRON         RAIN      59  58  94 CALM      30.15R
HOLDREGE       CLOUDY    58  55  90 CALM      30.14S
KEARNEY *      MOCLDY    61  54  77 N3        30.13S
YORK           CLOUDY    57  57 100 CALM      30.13R
$$

NEZ011>018-030>034-042>045-251300-
NORTHEAST NEBRASKA

CITY           SKY/WX    TMP DP  RH WIND       PRES   REMARKS
NORFOLK        CLOUDY    56  54  93 W3        30.12R
6HR MIN TEMP:  54; 6HR MAX TEMP:  59;

ALBION         CLOUDY    57  54  89 NW8       30.13R
BLAIR          CLOUDY    60  57  89 N7        30.09S
FREMONT        PTCLDY    55  54  97 CALM      30.11R
TEKAMAH        CLEAR     52  50  93 CALM      30.10R
6HR MIN TEMP:  52; 6HR MAX TEMP:  57;

WAYNE          CLOUDY    56  55  95 CALM      30.12R
$$

NEZ050>053-065>068-078-088>093-251300-
SOUTHEAST NEBRASKA

CITY           SKY/WX    TMP DP  RH WIND       PRES   REMARKS
LINCOLN        CLOUDY    59  56  89 NW3       30.12R
6HR MIN TEMP:  57; 6HR MAX TEMP:  61;

OMAHA EPPLEY   CLOUDY    58  55  90 N5        30.10R
6HR MIN TEMP:  58; 6HR MAX TEMP:  63;

BEATRICE       LGT RAIN  61  58  92 N5        30.10S
FALLS CITY     CLOUDY    67  64  90 N3        30.04S
6HR MIN TEMP:  66; 6HR MAX TEMP:  69;

NEBRASKA CITY  MOCLDY    61  61 100 N6        30.07F
PLATTSMOUTH    PTCLDY    60  60  99 CALM      30.09R
$$

NEZ044-045-051>053-067-251300-
OMAHA AREA

CITY           SKY/WX    TMP DP  RH WIND       PRES   REMARKS
OMAHA EPPLEY   CLOUDY    58  55  90 N5        30.10R
6HR MIN TEMP:  58; 6HR MAX TEMP:  63;

BLAIR          CLOUDY    60  57  89 N7        30.09S
FREMONT        PTCLDY    55  54  97 CALM      30.11R
MILLARD        PTCLDY    58  56  92 CALM      30.09R
OFFUTT AFB     CLOUDY    58  58 100 NW3       30.08R
PLATTSMOUTH    PTCLDY    60  60  99 CALM      30.09R
WAHOO          FAIR      56  55  93 NW3       30.10R
$$




USA.gov is the U.S. government's official web portal to all federal, state and local government web resources and services.